C/2008 J5 ( Garradd )

Japanese version
Home page
Updated on October 12, 2008

---------------------------------------------------------------------

* Profile

Discovery Date May 13, 2008
Magnitude 16.7 mag
Discoverer G. J. Garradd (Siding Spring Survey)

* Pictures

* Orbital Elements

Epoch 2008 Apr. 4.0 TT = JDT 2454560.5
T 2008 Apr. 1.04575 TT                                  MPC
q   1.9636386            (2000.0)            P               Q
z  +0.0141043      Peri.  313.36370     +0.24119600     +0.17610469
 +/-0.0000755      Node   287.07610     -0.30232432     -0.92082851
e   0.9723043      Incl.   93.26441     -0.92218463     +0.34793965

* Finding Charts

* Magnitudes Graph

        m1 = 10.2 + 5 log d + 15.0 log r

---------------------------------------------------------------------

The orbital elements are published on M.P.E.C. 2008-N41.
The charts are made with StellaNavigator Ver.8 (AstroArts).
The magnitudes graphs are made with Comet for Windows.

---------------------------------------------------------------------

Copyright(C) Seiichi Yoshida (comet@aerith.net). All rights reserved.